Вернуться в каталог

SCOUT D-1 DEB

АктивенPO
NORAD 12858·DEBRIS·🇺🇸 United States

Запущен Oct 28, 1977 с Vandenberg Space Force Base

Loading…

Ближайшие Пролёты (ближайшие 24 часа)

TLE

СвежийSource: Space-Track

Эпоха: Sep 14, 2026, 12:16 UTC

1 12858U 77106C   26257.51114252  .00000086  00000-0  12065-3 0  9999
2 12858  89.5145 342.4696 0017710 197.1111 292.6266 13.49240955303684

Отслеживайте SCOUT D-1 DEB в реальном времени с AllMySat

Download on the App Store